EW8060 Weather Reports


time (UTC)temp
C
wind
direction
speed
KPH
gust
KPH
rain 1hr
cm
rain 24hr
cm
rain mn
cm
humidity
%
barometer
mb
20260507224839 17 71 0.0 0.0 0.00 0.18 0.08 48 1011.8
20260507223819 17 88 0.0 0.0 0.00 0.18 0.08 48 1011.7
20260507222819 17 109 0.0 0.0 0.00 0.18 0.08 49 1011.6
20260507221818 18 90 0.0 0.0 0.00 0.18 0.08 50 1011.6
20260507220818 17 333 0.0 0.0 0.00 0.18 0.08 66 1011.6
20260507215818 17 269 0.0 0.0 0.00 0.18 0.08 73 1011.4
20260507214817 17 290 0.0 0.0 0.00 0.18 0.08 70 1011.3
20260507213817 17 271 0.0 0.0 0.00 0.18 0.08 73 1011.3
20260507212817 16 337 0.0 0.0 0.00 0.18 0.08 72 1011.4
20260507211818 17 313 0.0 0.0 0.00 0.18 0.08 69 1011.4
20260507210836 17 74 0.0 0.0 0.00 0.18 0.08 69 1011.4
20260507205816 17 342 0.0 0.0 0.00 0.18 0.08 70 1011.3
20260507204816 16 326 0.0 0.0 0.00 0.18 0.08 75 1011.2
20260507203815 16 336 0.0 0.0 0.00 0.18 0.08 78 1011.2
20260507202815 15 344 0.0 0.0 0.00 0.18 0.08 74 1011.3
20260507201814 15 330 0.0 0.0 0.00 0.18 0.08 75 1011.3
20260507200816 15 333 0.0 0.0 0.00 0.18 0.08 76 1011.4
20260507195814 15 338 0.0 0.0 0.00 0.18 0.08 76 1011.6
20260507194814 14 338 0.0 0.0 0.03 0.18 0.08 79 1012.0
20260507193813 14 73 0.0 0.0 0.05 0.18 0.08 80 1012.3
20260507192813 14 89 0.0 0.0 0.05 0.18 0.08 77 1012.5
20260507191812 14 90 0.0 0.0 0.05 0.18 0.08 81 1012.3
20260507190812 13 91 0.0 0.0 0.05 0.18 0.08 79 1012.4
20260507185812 13 94 0.0 0.0 0.05 0.18 0.08 79 1012.5
20260507184811 13 97 0.0 0.0 0.03 0.15 0.05 80 1012.8
20260507183811 13 96 0.0 0.0 0.00 0.13 0.03 76 1012.7
20260507182811 13 96 0.0 0.0 0.00 0.13 0.03 77 1012.8
20260507181811 13 77 0.0 0.0 0.03 0.13 0.03 75 1012.7
20260507180810 13 46 0.0 0.0 0.03 0.13 0.03 76 1012.6
20260507175810 13 128 0.0 0.0 0.03 0.13 0.03 76 1012.7
20260507174830 13 167 0.0 0.0 0.03 0.13 0.03 78 1012.7
20260507173830 13 130 0.0 0.0 0.03 0.13 0.03 79 1012.8
20260507172810 13 194 0.0 0.0 0.03 0.13 0.03 78 1012.7
20260507171829 13 123 0.0 0.0 0.00 0.10 0.00 78 1012.9
20260507170809 13 136 0.0 0.0 0.00 0.10 0.00 78 1012.8
20260507165808 13 108 0.0 0.0 0.00 0.13 0.00 78 1012.8
20260507164808 13 86 0.0 0.0 0.00 0.13 0.00 76 1012.9
20260507163808 14 55 0.0 0.0 0.00 0.13 0.00 75 1012.8
20260507162807 14 128 0.0 0.0 0.00 0.13 0.00 74 1012.8
20260507161807 14 228 0.0 0.0 0.00 0.13 0.00 75 1012.8
20260507160807 14 217 0.0 0.0 0.00 0.13 0.00 75 1012.8
20260507155806 14 76 0.0 0.0 0.00 0.13 0.00 76 1013.0
20260507154806 14 83 0.0 0.0 0.00 0.13 0.00 75 1013.3
20260507153806 14 65 0.0 0.0 0.00 0.13 0.00 75 1013.1
20260507152805 14 78 0.0 0.0 0.00 0.13 0.00 76 1013.2
20260507151825 15 36 0.0 0.0 0.00 0.13 0.00 75 1013.2
20260507150805 15 46 0.0 0.0 0.00 0.13 0.00 74 1013.1
20260507145825 15 111 0.0 0.0 0.00 0.13 0.00 74 1013.0
20260507144806 15 76 0.0 0.0 0.00 0.13 0.00 74 1013.0
20260507143804 15 84 0.0 0.0 0.00 0.13 0.00 74 1012.8
20260507142804 15 183 0.0 0.0 0.00 0.13 0.00 74 1012.9
20260507141804 15 45 0.0 0.0 0.00 0.13 0.00 74 1013.1
20260507140805 15 157 0.0 0.0 0.00 0.13 0.00 73 1012.8
20260507135843 15 266 0.0 0.0 0.00 0.13 0.00 73 1012.5
20260507134803 15 113 0.0 0.0 0.00 0.13 0.00 72 1013.1
20260507133803 15 86 0.0 0.0 0.00 0.13 0.00 74 1013.1
20260507132802 15 55 0.0 0.0 0.00 0.13 0.00 74 1013.0
20260507131802 15 223 0.0 0.0 0.00 0.13 0.00 74 1013.2
20260507130802 15 142 0.0 0.0 0.00 0.13 0.00 75 1013.1
20260507125802 15 120 0.0 1.6 0.00 0.13 0.00 76 1013.0
20260507124801 15 63 0.0 0.0 0.00 0.15 0.00 76 1013.0
20260507123801 15 79 0.0 0.0 0.00 0.15 0.00 76 1013.0
20260507122800 15 62 0.0 0.0 0.00 0.15 0.00 76 1013.1
20260507121800 15 157 0.0 0.0 0.00 0.15 0.00 76 1013.1
20260507120801 15 124 0.0 0.0 0.00 0.15 0.00 76 1013.0
20260507115819 15 188 0.0 0.0 0.00 0.15 0.00 76 1012.9
20260507114819 15 61 0.0 0.0 0.00 0.15 0.00 76 1012.8
20260507113759 15 224 0.0 0.0 0.00 0.15 0.00 76 1012.9
20260507112758 15 61 0.0 0.0 0.00 0.15 0.00 76 1012.8
20260507111758 15 137 0.0 0.0 0.00 0.15 0.00 76 1012.6
20260507110818 15 123 0.0 0.0 0.00 0.15 0.00 77 1012.4
20260507105757 15 34 0.0 0.0 0.00 0.15 0.00 76 1012.4
20260507104757 15 122 0.0 0.0 0.00 0.15 0.00 77 1012.2
20260507103756 15 93 0.0 0.0 0.00 0.15 0.00 77 1012.1
20260507102756 15 221 0.0 0.0 0.00 0.15 0.00 77 1012.1
20260507101756 15 88 0.0 0.0 0.00 0.15 0.00 78 1012.3
20260507100755 15 142 0.0 0.0 0.00 0.15 0.00 77 1012.1
20260507095755 15 107 0.0 0.0 0.00 0.15 0.00 78 1011.9
20260507094755 15 167 0.0 0.0 0.00 0.15 0.00 79 1012.4
20260507093815 15 119 0.0 0.0 0.00 0.15 0.00 78 1012.0
20260507092754 15 133 0.0 0.0 0.00 0.15 0.00 78 1012.3
20260507091754 15 98 0.0 0.0 0.00 0.15 0.00 79 1012.1
20260507090753 16 183 0.0 0.0 0.00 0.15 0.00 79 1011.8
20260507085753 16 180 0.0 0.0 0.00 0.15 0.00 80 1011.8
20260507084753 16 104 0.0 0.0 0.00 0.15 0.00 79 1011.8
20260507083752 16 88 0.0 0.0 0.00 0.15 0.00 81 1012.4
20260507082752 16 153 0.0 0.0 0.00 0.15 0.00 80 1012.2
20260507081752 16 121 0.0 0.0 0.00 0.15 0.00 80 1012.1
20260507080751 16 116 0.0 0.0 0.00 0.15 0.00 80 1012.2
20260507075811 16 169 0.0 0.0 0.00 0.15 0.00 81 1012.2
20260507074751 17 94 0.0 0.0 0.00 0.15 0.00 84 1012.4
20260507073750 17 223 0.0 0.0 0.00 0.15 0.00 82 1012.2
20260507072750 17 150 0.0 0.0 0.00 0.15 0.00 83 1012.4
20260507071810 17 125 0.0 0.0 0.00 0.15 0.00 82 1012.1
20260507070809 17 117 0.0 0.0 0.00 0.15 0.00 83 1012.0
20260507065749 17 212 0.0 0.0 0.00 0.15 0.00 86 1011.6
20260507064749 16 133 0.0 0.0 0.00 0.15 0.00 91 1011.7
20260507063748 16 167 0.0 0.0 0.00 0.15 0.00 93 1012.3
20260507062748 16 182 0.0 0.0 0.00 0.15 0.00 92 1012.0
20260507061747 17 182 0.0 0.0 0.00 0.15 0.00 91 1011.8
20260507060747 17 182 0.0 0.0 0.00 0.15 0.00 91 1011.8
20260507055747 17 182 0.0 0.0 0.00 0.15 0.00 92 1012.3
20260507054747 17 274 0.0 0.0 0.00 0.15 0.00 92 1012.3
20260507053806 17 274 0.0 0.0 0.00 0.15 0.00 92 1012.6
20260507052746 17 274 0.0 0.0 0.00 0.15 0.00 92 1012.8
20260507051746 17 302 0.0 0.0 0.00 0.15 0.00 92 1012.7
20260507050745 17 293 0.0 0.0 0.00 0.15 0.00 92 1012.3
20260507045845 17 300 0.0 0.0 0.00 0.15 0.00 92 1012.2
20260507044745 17 313 0.0 0.0 0.00 0.15 0.00 92 1012.1
20260507043744 17 320 0.0 0.0 0.00 0.15 0.00 92 1011.8
20260507042744 17 78 0.0 0.0 0.00 0.15 0.00 91 1012.2
20260507041743 17 131 0.0 0.0 0.00 0.15 0.00 91 1012.1
20260507040743 17 131 0.0 0.0 0.00 0.15 0.00 90 1012.3
20260507035804 17 131 0.0 0.0 0.00 0.15 0.15 89 1012.2
20260507034744 17 131 0.0 0.0 0.03 0.15 0.15 88 1012.6
20260507033742 17 131 0.0 0.0 0.03 0.15 0.15 87 1012.9
20260507032742 17 137 0.0 0.0 0.08 0.15 0.15 87 1013.5
20260507031742 17 128 0.0 0.0 0.10 0.15 0.15 86 1014.0
20260507030741 17 100 0.0 0.0 0.10 0.15 0.15 86 1013.8
20260507025743 17 173 0.0 0.0 0.10 0.15 0.15 85 1013.6
20260507024741 18 121 0.0 0.0 0.08 0.13 0.13 84 1013.5
20260507023742 18 213 0.0 0.0 0.08 0.13 0.13 80 1012.9
20260507022740 18 63 0.0 0.0 0.03 0.08 0.08 78 1014.0
20260507021740 19 101 0.0 0.0 0.00 0.05 0.05 77 1013.2
20260507020739 19 5 0.0 0.0 0.00 0.05 0.05 75 1012.7
20260507015739 19 32 0.0 0.0 0.00 0.05 0.05 77 1012.8
20260507014739 18 306 0.0 0.0 0.00 0.05 0.05 80 1012.9
20260507013758 18 292 0.0 0.0 0.00 0.05 0.05 81 1012.1
20260507012738 19 309 0.0 0.0 0.00 0.05 0.05 80 1012.3
20260507011737 19 307 0.0 0.0 0.00 0.05 0.05 80 1012.4
20260507010737 19 268 0.0 0.0 0.00 0.05 0.05 80 1012.5
20260507005737 19 279 0.0 0.0 0.00 0.05 0.05 80 1012.7
20260507004736 19 292 0.0 0.0 0.00 0.05 0.05 79 1012.5
20260507003736 19 286 0.0 0.0 0.00 0.05 0.05 79 1012.3
20260507002736 19 233 0.0 0.0 0.00 0.05 0.05 79 1012.1
20260507001736 19 355 0.0 0.0 0.00 0.05 0.05 80 1012.5
20260507000735 20 300 0.0 0.0 0.00 0.05 0.05 80 1011.8
20260506235735 20 302 0.0 0.0 0.00 0.05 0.05 79 1011.8
20260506234734 20 322 0.0 0.0 0.00 0.05 0.05 78 1012.0
20260506233754 20 294 0.0 0.0 0.00 0.05 0.05 77 1012.1
20260506232734 20 292 0.0 0.0 0.00 0.05 0.05 78 1012.3
20260506231753 20 288 0.0 0.0 0.00 0.05 0.05 77 1011.8
20260506230733 20 288 0.0 0.0 0.00 0.05 0.05 78 1011.7
20260506225754 20 298 0.0 0.0 0.00 0.05 0.05 78 1012.1